Radiation Dose at Monitoring Post of Fukushima Daini Nuclear Power Station
Date,Time,MP-1(microSv/h),MP-2(microSv/h),MP-3(microSv/h),MP-4(microSv/h),MP-5(microSv/h),MP-6(microSv/h),MP-7(microSv/h),Wind Direction,Wind Velocity(m/s),Rain
2016/08/12,00:00,0.427,0.250,0.441,0.401,0.374,0.206,0.175,north-northwest,0.6,No
2016/08/12,00:10,0.428,0.252,0.443,0.398,0.372,0.206,0.175,northwest,1.0,No
2016/08/12,00:20,0.427,0.249,0.442,0.400,0.374,0.206,0.177,northwest,1.3,No
2016/08/12,00:30,0.424,0.250,0.442,0.401,0.375,0.205,0.174,northwest,1.0,No
2016/08/12,00:40,0.427,0.250,0.443,0.397,0.372,0.208,0.177,north-northwest,1.1,No
2016/08/12,00:50,0.426,0.250,0.441,0.400,0.376,0.205,0.175,north,1.0,No
2016/08/12,01:00,0.426,0.251,0.444,0.398,0.371,0.208,0.177,north,0.8,No
2016/08/12,01:10,0.426,0.251,0.439,0.401,0.375,0.205,0.176,-,CALM,No
2016/08/12,01:20,0.424,0.251,0.444,0.400,0.373,0.207,0.176,-,CALM,No
2016/08/12,01:30,0.428,0.250,0.443,0.399,0.373,0.207,0.175,-,CALM,No
2016/08/12,01:40,0.425,0.250,0.441,0.401,0.373,0.205,0.177,north,1.6,No
2016/08/12,01:50,0.428,0.249,0.444,0.396,0.372,0.206,0.176,north,1.9,No
2016/08/12,02:00,0.426,0.251,0.440,0.401,0.374,0.205,0.175,north,2.2,No
2016/08/12,02:10,0.427,0.250,0.443,0.397,0.372,0.205,0.175,north-northwest,2.5,No
2016/08/12,02:20,0.427,0.250,0.441,0.400,0.375,0.207,0.176,north,2.5,No
2016/08/12,02:30,0.425,0.249,0.443,0.398,0.373,0.206,0.177,north,3.3,No
2016/08/12,02:40,0.428,0.249,0.442,0.398,0.374,0.205,0.175,north,3.8,No
2016/08/12,02:50,0.423,0.251,0.441,0.399,0.372,0.207,0.176,north,3.9,No
2016/08/12,03:00,0.427,0.250,0.443,0.399,0.374,0.207,0.176,north,3.7,No
2016/08/12,03:10,0.426,0.250,0.441,0.401,0.372,0.206,0.176,north,4.2,No
2016/08/12,03:20,0.427,0.249,0.445,0.398,0.373,0.206,0.176,north,4.1,No
2016/08/12,03:30,0.426,0.251,0.440,0.401,0.373,0.207,0.177,north,4.2,No
2016/08/12,03:40,0.424,0.250,0.444,0.396,0.372,0.207,0.176,north,4.3,No
2016/08/12,03:50,0.426,0.250,0.440,0.401,0.373,0.206,0.176,north,3.8,No
2016/08/12,04:00,0.425,0.249,0.444,0.399,0.373,0.205,0.176,north,4.2,No
2016/08/12,04:10,0.427,0.250,0.441,0.401,0.375,0.207,0.176,north,4.5,No
2016/08/12,04:20,0.424,0.250,0.443,0.398,0.371,0.206,0.175,north,4.7,No
2016/08/12,04:30,0.427,0.249,0.443,0.400,0.375,0.207,0.177,north,4.4,No
2016/08/12,04:40,0.426,0.250,0.442,0.399,0.372,0.206,0.176,north,4.5,No
2016/08/12,04:50,0.425,0.251,0.444,0.397,0.374,0.206,0.176,north,4.3,No
2016/08/12,05:00,0.426,0.251,0.439,0.400,0.372,0.206,0.177,north,4.2,No
2016/08/12,05:10,0.426,0.250,0.444,0.399,0.371,0.207,0.176,north,3.9,No
2016/08/12,05:20,0.426,0.250,0.441,0.401,0.371,0.208,0.176,north,3.6,No
2016/08/12,05:30,0.424,0.249,0.444,0.398,0.372,0.206,0.176,north,4.0,No
2016/08/12,05:40,0.428,0.251,0.440,0.400,0.374,0.206,0.176,north-northwest,4.2,No
2016/08/12,05:50,0.423,0.249,0.442,0.399,0.372,0.205,0.175,north,4.8,No
2016/08/12,06:00,0.426,0.251,0.443,0.400,0.372,0.207,0.176,north-northwest,4.2,No
2016/08/12,06:10,0.425,0.250,0.439,0.399,0.370,0.205,0.176,north-northwest,3.7,No
2016/08/12,06:20,0.427,0.250,0.442,0.399,0.375,0.206,0.174,north,5.2,No
2016/08/12,06:30,0.426,0.250,0.440,0.400,0.371,0.206,0.173,north,4.1,No
2016/08/12,06:40,0.423,0.249,0.443,0.398,0.371,0.205,0.177,north-northwest,4.1,No
2016/08/12,06:50,0.426,0.250,0.442,0.401,0.374,0.207,0.176,north,3.6,No
2016/08/12,07:00,0.426,0.250,0.440,0.400,0.372,0.206,0.175,north,3.7,No
2016/08/12,07:10,0.425,0.248,0.444,0.395,0.371,0.206,0.175,north,3.3,No
2016/08/12,07:20,0.427,0.248,0.443,0.395,0.374,0.206,0.175,north,2.0,No
2016/08/12,07:30,0.425,0.250,0.439,0.401,0.372,0.205,0.175,north,2.4,No
2016/08/12,07:40,0.423,0.250,0.437,0.399,0.372,0.206,0.175,north,2.5,No
2016/08/12,07:50,0.427,0.250,0.437,0.398,0.376,0.206,0.176,north-northeast,2.8,No
2016/08/12,08:00,0.427,0.249,0.437,0.398,0.373,0.205,0.176,north-northeast,3.6,No
2016/08/12,08:10,0.424,0.249,0.444,0.396,0.370,0.206,0.176,north-northeast,3.9,No
2016/08/12,08:20,0.422,0.249,0.443,0.397,0.369,0.206,0.177,northeast,3.7,No
2016/08/12,08:30,0.427,0.249,0.439,0.396,0.369,0.206,0.175,northeast,4.0,No
2016/08/12,08:40,0.428,0.249,0.439,0.396,0.375,0.207,0.176,northeast,4.0,No
2016/08/12,08:50,0.428,0.251,0.445,0.396,0.376,0.207,0.175,northeast,3.9,No
2016/08/12,09:00,0.423,0.250,0.443,0.397,0.373,0.207,0.176,east-northeast,3.6,No
2016/08/12,09:10,0.423,0.250,0.442,0.399,0.373,0.207,0.176,northeast,3.1,No
2016/08/12,09:20,0.423,0.249,0.437,0.401,0.373,0.208,0.176,northeast,3.5,No
2016/08/12,09:30,0.422,0.251,0.444,0.401,0.372,0.208,0.175,east-northeast,4.6,No
2016/08/12,09:40,0.422,0.250,0.446,0.399,0.372,0.207,0.176,east-northeast,3.2,No
2016/08/12,09:50,0.423,0.249,0.440,0.398,0.372,0.208,0.176,northeast,3.5,No
2016/08/12,10:00,0.423,0.249,0.439,0.400,0.371,0.207,0.175,northeast,4.4,No
2016/08/12,10:10,0.423,0.250,0.437,0.400,0.371,0.207,0.175,northeast,3.2,No
2016/08/12,10:20,0.423,0.250,0.437,0.400,0.372,0.208,0.175,east-northeast,3.6,No
2016/08/12,10:30,0.422,0.249,0.438,0.401,0.372,0.208,0.176,northeast,3.9,No
2016/08/12,10:40,0.422,0.249,0.440,0.400,0.371,0.207,0.176,northeast,3.0,No
2016/08/12,10:50,0.423,0.249,0.440,0.400,0.373,0.207,0.175,northeast,3.4,No
2016/08/12,11:00,0.423,0.250,0.439,0.402,0.372,0.208,0.176,northeast,4.2,No
2016/08/12,11:10,0.425,0.251,0.441,0.402,0.372,0.208,0.177,northeast,3.9,No
2016/08/12,11:20,0.422,0.250,0.442,0.402,0.371,0.207,0.176,northeast,3.2,No
2016/08/12,11:30,0.423,0.250,0.442,0.401,0.372,0.207,0.176,northeast,2.7,No
2016/08/12,11:40,0.423,0.250,0.441,0.402,0.370,0.207,0.177,northeast,3.9,No
2016/08/12,11:50,0.425,0.250,0.442,0.402,0.372,0.207,0.175,northeast,3.8,No
2016/08/12,12:00,0.422,0.250,0.442,0.403,0.374,0.207,0.176,northeast,3.3,No
2016/08/12,12:10,0.424,0.250,0.445,0.401,0.373,0.207,0.177,northeast,3.9,No
2016/08/12,12:20,0.425,0.250,0.443,0.403,0.373,0.207,0.177,east-northeast,2.5,No
2016/08/12,12:30,0.425,0.251,0.445,0.402,0.374,0.206,0.175,northeast,4.3,No
2016/08/12,12:40,0.425,0.250,0.446,0.402,0.373,0.208,0.176,east-northeast,3.6,No
2016/08/12,12:50,0.426,0.251,0.445,0.402,0.373,0.208,0.177,east-northeast,3.9,No
2016/08/12,13:00,0.424,0.251,0.444,0.403,0.374,0.207,0.177,east-northeast,3.5,No
2016/08/12,13:10,0.422,0.250,0.445,0.402,0.372,0.207,0.177,east-northeast,3.9,No
2016/08/12,13:20,0.423,0.250,0.444,0.403,0.374,0.207,0.177,northeast,3.1,No
2016/08/12,13:30,0.430,0.250,0.445,0.400,0.374,0.207,0.177,east-northeast,2.6,No
2016/08/12,13:40,0.430,0.251,0.445,0.400,0.374,0.207,0.178,east-northeast,3.1,No
2016/08/12,13:50,0.429,0.251,0.442,0.403,0.374,0.206,0.177,east-northeast,3.2,No
2016/08/12,14:00,0.428,0.250,0.444,0.402,0.373,0.206,0.177,east-northeast,3.4,No
2016/08/12,14:10,0.427,0.251,0.443,0.401,0.373,0.207,0.176,east-northeast,3.4,No
2016/08/12,14:20,0.425,0.250,0.443,0.400,0.373,0.206,0.177,east-northeast,3.8,No
2016/08/12,14:30,0.425,0.252,0.444,0.400,0.373,0.208,0.177,east-northeast,3.3,No
2016/08/12,14:40,0.425,0.251,0.441,0.401,0.371,0.207,0.176,east,3.1,No
2016/08/12,14:50,0.425,0.251,0.443,0.399,0.374,0.208,0.176,east,2.3,No
2016/08/12,15:00,0.425,0.250,0.443,0.400,0.371,0.206,0.175,east-northeast,2.3,No
2016/08/12,15:10,0.427,0.250,0.440,0.399,0.372,0.207,0.176,east-northeast,3.1,No
2016/08/12,15:20,0.432,0.250,0.442,0.398,0.371,0.207,0.176,east-northeast,2.3,No
2016/08/12,15:30,0.430,0.250,0.441,0.398,0.371,0.208,0.176,east-southeast,2.1,No
2016/08/12,15:40,0.427,0.249,0.442,0.399,0.372,0.207,0.176,east,1.9,No
2016/08/12,15:50,0.426,0.250,0.439,0.405,0.371,0.207,0.176,east,1.8,No
2016/08/12,16:00,0.424,0.250,0.441,0.404,0.374,0.208,0.179,east-northeast,2.0,No
2016/08/12,16:10,0.429,0.252,0.440,0.402,0.373,0.207,0.177,east,2.2,No
2016/08/12,16:20,0.433,0.251,0.443,0.399,0.373,0.207,0.178,northeast,2.1,No
2016/08/12,16:30,0.429,0.249,0.448,0.405,0.373,0.206,0.176,east-northeast,1.8,No
2016/08/12,16:40,0.426,0.253,0.445,0.404,0.373,0.205,0.178,east,1.8,No
2016/08/12,16:50,0.424,0.252,0.442,0.402,0.375,0.207,0.178,east-southeast,1.9,No
2016/08/12,17:00,0.429,0.253,0.442,0.402,0.372,0.207,0.177,east-southeast,1.5,No
2016/08/12,17:10,0.430,0.251,0.448,0.405,0.373,0.208,0.177,northeast,1.8,No
2016/08/12,17:20,0.427,0.252,0.445,0.404,0.372,0.208,0.178,east-northeast,2.4,No
2016/08/12,17:30,0.425,0.251,0.443,0.400,0.372,0.207,0.177,northeast,1.6,No
2016/08/12,17:40,0.430,0.251,0.443,0.404,0.371,0.206,0.176,east-northeast,2.2,No
2016/08/12,17:50,0.430,0.252,0.446,0.404,0.369,0.208,0.177,east-northeast,1.6,No
2016/08/12,18:00,0.424,0.252,0.443,0.400,0.371,0.208,0.178,east-southeast,1.1,No
2016/08/12,18:10,0.428,0.250,0.443,0.403,0.378,0.208,0.177,-,CALM,No
2016/08/12,18:20,0.431,0.252,0.446,0.405,0.374,0.208,0.179,-,CALM,No
2016/08/12,18:30,0.427,0.252,0.445,0.400,0.372,0.208,0.177,north-northwest,0.5,No
2016/08/12,18:40,0.428,0.251,0.441,0.403,0.377,0.207,0.177,-,CALM,No
2016/08/12,18:50,0.429,0.254,0.446,0.402,0.376,0.208,0.178,-,CALM,No
2016/08/12,19:00,0.427,0.251,0.446,0.401,0.371,0.207,0.177,-,CALM,No
2016/08/12,19:10,0.429,0.252,0.441,0.404,0.376,0.208,0.178,-,CALM,No
2016/08/12,19:20,0.430,0.254,0.447,0.402,0.375,0.208,0.176,southwest,0.7,No
2016/08/12,19:30,0.424,0.251,0.445,0.403,0.372,0.207,0.178,-,CALM,No
2016/08/12,19:40,0.430,0.253,0.442,0.406,0.376,0.208,0.178,west,0.5,No
2016/08/12,19:50,0.428,0.252,0.448,0.401,0.373,0.208,0.177,northwest,0.6,No
2016/08/12,20:00,0.429,0.252,0.444,0.405,0.374,0.208,0.178,-,CALM,No
2016/08/12,20:10,0.429,0.253,0.446,0.403,0.376,0.208,0.177,-,CALM,No
2016/08/12,20:20,0.426,0.252,0.445,0.401,0.373,0.207,0.178,south,0.5,No
2016/08/12,20:30,0.432,0.252,0.444,0.404,0.377,0.207,0.177,-,CALM,No
2016/08/12,20:40,0.428,0.251,0.446,0.401,0.374,0.208,0.177,-,CALM,No
2016/08/12,20:50,0.430,0.253,0.443,0.404,0.373,0.207,0.178,-,CALM,No
2016/08/12,21:00,0.430,0.252,0.446,0.404,0.376,0.206,0.177,-,CALM,No
2016/08/12,21:10,0.427,0.253,0.446,0.404,0.372,0.208,0.177,-,CALM,No
2016/08/12,21:20,0.433,0.252,0.445,0.405,0.378,0.208,0.177,-,CALM,No
2016/08/12,21:30,0.428,0.253,0.446,0.401,0.372,0.208,0.179,-,CALM,No
2016/08/12,21:40,0.430,0.252,0.443,0.404,0.376,0.208,0.176,-,CALM,No
2016/08/12,21:50,0.429,0.253,0.446,0.402,0.374,0.207,0.179,-,CALM,No
2016/08/12,22:00,0.428,0.253,0.445,0.404,0.373,0.208,0.178,-,CALM,No
2016/08/12,22:10,0.430,0.251,0.444,0.404,0.375,0.208,0.178,-,CALM,No
2016/08/12,22:20,0.428,0.255,0.446,0.402,0.373,0.208,0.178,-,CALM,No
2016/08/12,22:30,0.431,0.252,0.444,0.404,0.375,0.208,0.177,-,CALM,No
2016/08/12,22:40,0.426,0.253,0.445,0.402,0.373,0.207,0.176,-,CALM,No
2016/08/12,22:50,0.431,0.252,0.443,0.404,0.375,0.208,0.178,-,CALM,No
2016/08/12,23:00,0.426,0.253,0.448,0.401,0.373,0.208,0.178,-,CALM,No
2016/08/12,23:10,0.429,0.252,0.445,0.405,0.375,0.209,0.177,-,CALM,No
2016/08/12,23:20,0.428,0.253,0.445,0.402,0.374,0.208,0.176,-,CALM,No
2016/08/12,23:30,0.429,0.251,0.446,0.403,0.374,0.209,0.177,-,CALM,No
2016/08/12,23:40,0.429,0.254,0.443,0.402,0.375,0.207,0.178,-,CALM,No
2016/08/12,23:50,0.429,0.252,0.448,0.404,0.373,0.208,0.177,-,CALM,No
